Wind_Speed
8 10 13 14 13 14 16 19 18 18 18 19 20 20 18 10 9 8 5 4 9 13 17 13 7 10 14 15 13 9 12 6 13 22 20 19 13 15 6 8 8 9 7 8 9 9 9 14 15 13 12 12 16 18
7 10 11 12 14 15 16 16 18 16 16 18 20 20 17 12 12 10 6 4 9 4 6 8 13 12 15 15 14 16 16 10 7 8 15 10 8 10 11 6 11 6 8 2 9 4 6 5 9 11 16 20 19 23
7 9 11 12 13 14 14 15 15 16 16 17 17 17 19 16 12 11 8 6 4 14 12 10 7 10 9 10 10 14 12 4 7 14 10 5 4 7 8 7 8 9 7 8 9 6 11 13 13 16 20 25 25 28
8 10 11 12 12 13 14 15 14 13 13 13 14 15 15 17 15 12 9 6 2 4 6 6 7 9 9 9 7 8 10 7 4 9 7 3 2 4 7 7 10 11 8 8 14 16 18 19 20 25 29 29 32 34
10 10 11 12 13 13 14 14 14 14 13 12 11 11 12 13 12 10 8 6 4 4 8 5 1 3 3 4 6 6 7 9 6 11 8 8 8 9 10 12 14 15 18 19 21 21 25 28 28 29 31 33 34 37
11 12 13 14 15 15 15 15 15 14 14 13 12 11 10 9 10 10 7 7 3 6 8 4 4 2 4 3 4 4 3 5 8 10 8 7 9 10 8 11 14 11 11 14 19 25 28 29 31 32 32 30 30 33
12 13 15 17 17 18 18 18 17 16 15 13 12 11 11 9 8 6 6 7 7 7 7 3 3 8 2 2 2 3 3 3 6 8 9 9 9 12 17 23 19 19 19 22 23 25 27 27 29 25 24 24 25 29
13 14 15 17 18 19 19 19 19 18 16 14 12 11 12 10 7 7 8 8 7 8 6 2 1 2 3 4 4 5 6 7 11 12 15 15 16 16 16 22 20 17 17 17 20 20 22 24 26 23 18 21 21 18
12 13 14 15 17 18 19 19 18 17 16 15 14 13 12 9 8 12 10 10 7 7 4 3 3 2 5 8 2 5 8 10 12 16 17 14 17 18 21 17 13 10 13 13 14 16 16 19 16 12 14 15 17 13
11 11 12 13 15 17 18 18 16 15 14 13 13 12 12 9 13 10 4 1 1 3 2 4 6 6 5 5 3 5 6 5 6 9 9 11 22 19 18 15 14 10 8 12 14 15 14 14 14 13 14 15 16 14
9 9 9 11 13 15 16 17 16 15 13 12 10 9 11 12 9 2 2 1 1 2 6 8 8 4 6 3 6 4 4 5 4 4 5 5 16 11 6 9 9 7 10 12 15 15 15 15 15 15 16 16 15 13
11 10 9 9 10 12 15 16 16 15 14 12 10 9 9 4 3 3 3 2 1 0 3 4 5 5 6 7 4 4 5 4 4 5 5 6 12 12 6 8 6 8 10 13 14 15 16 16 17 17 20 18 14 10
15 14 12 10 9 9 12 16 18 17 14 12 8 4 3 3 4 4 4 3 3 2 5 6 8 9 5 3 4 5 4 4 5 4 5 7 12 10 4 6 7 8 11 14 15 17 18 18 18 18 18 19 17 7
15 17 16 15 13 11 12 14 17 18 15 10 5 3 3 4 5 6 7 6 5 6 7 9 11 8 7 5 5 4 4 4 4 4 4 10 13 11 9 9 10 10 11 13 15 17 17 17 17 17 17 18 15 5
14 15 17 18 17 17 15 14 15 17 16 7 5 4 6 8 8 8 9 9 10 11 13 15 12 8 9 7 5 5 4 5 5 3 13 16 13 14 12 15 15 14 14 13 14 17 17 16 16 15 15 15 13 9
15 15 16 17 19 20 19 17 16 16 17 8 5 9 11 11 12 13 13 13 13 12 11 9 6 6 7 5 6 7 4 6 5 7 15 19 16 13 13 20 22 14 14 14 15 16 16 15 14 14 13 12 12 10
14 15 16 17 18 20 21 20 19 18 11 8 14 17 13 13 12 15 18 15 15 14 12 9 6 5 5 6 8 8 12 16 17 13 19 19 15 12 13 13 11 13 15 15 15 15 15 14 12 12 12 11 10 9
12 17 16 15 16 18 20 20 20 16 20 22 20 17 15 12 10 10 10 13 14 14 13 13 12 14 9 10 16 18 16 16 21 26 18 16 17 17 17 19 19 18 18 18 17 16 15 14 14 12 11 11 10 9
15 16 18 16 14 17 17 21 21 25 26 24 24 17 16 15 11 11 13 15 17 18 17 18 11 15 18 19 19 22 22 26 24 21 19 17 18 18 15 14 17 18 21 23 20 18 17 16 15 14 14 13 12 11
18 17 18 17 15 15 16 12 19 20 22 22 21 17 16 16 12 12 13 16 18 20 22 25 28 26 24 23 24 24 25 26 28 28 23 21 21 22 24 26 25 24 26 26 23 21 20 19 17 17 16 15 14 14
20 21 19 18 16 17 15 14 16 16 17 19 20 18 17 16 15 14 13 16 20 25 27 26 26 27 29 29 28 26 26 29 31 32 33 33 29 29 30 31 30 27 23 20 18 22 23 20 20 20 19 17 17 16
22 22 19 17 16 17 20 21 21 24 25 28 29 28 29 26 22 18 16 18 21 20 20 19 19 21 23 25 26 28 28 28 29 29 29 30 31 30 29 31 33 33 32 29 26 27 28 24 20 20 20 19 19 18
22 22 19 16 14 13 15 19 20 23 20 19 21 21 19 17 16 14 15 15 15 13 14 15 16 18 20 21 22 22 23 24 26 26 25 23 23 23 22 21 21 23 22 23 23 22 23 20 18 18 20 20 20 19
21 18 17 10 14 12 18 18 20 20 19 19 21 21 20 19 18 19 21 16 11 11 11 13 14 15 16 18 20 22 24 25 26 26 25 23 21 19 21 23 24 21 18 17 16 18 17 16 17 17 19 20 19 18
16 15 11 14 13 14 19 22 23 22 23 22 21 18 11 11 13 19 23 17 9 7 10 11 13 14 16 18 19 21 23 24 24 22 21 19 18 17 16 15 14 11 10 11 11 12 13 13 13 14 16 18 19 15
16 12 13 12 16 18 16 16 16 16 17 17 13 12 14 14 17 9 13 11 7 11 12 13 13 14 16 17 19 20 21 22 21 20 18 13 12 12 11 9 6 4 7 9 8 7 6 7 9 10 13 17 19 16
22 20 14 21 22 18 18 20 21 21 20 16 18 17 14 8 8 10 10 8 11 15 15 15 15 15 17 19 19 19 19 18 18 17 13 8 10 10 9 8 7 9 10 11 12 13 14 15 14 13 13 15 14 12
29 29 30 28 28 29 27 28 29 29 23 23 24 16 9 7 6 8 6 9 13 15 16 17 18 17 18 20 19 18 17 15 14 12 9 8 9 9 9 10 12 12 12 13 13 14 14 14 13 12 12 11 9 8
33 33 31 31 31 30 31 32 32 29 29 28 26 25 25 25 24 21 20 20 19 17 19 19 19 18 18 19 19 18 17 14 11 10 9 8 9 10 11 11 11 11 11 9 9 9 9 8 8 7 6 5 6 8
35 34 33 32 31 32 31 31 30 27 28 27 26 28 29 26 25 28 29 29 22 19 20 21 19 18 18 18 17 16 15 14 11 8 7 7 7 8 8 9 10 11 11 9 7 5 5 4 3 4 4 5 6 6
29 28 29 29 31 28 27 27 26 24 24 25 27 30 28 28 28 26 23 20 19 20 21 22 21 18 16 16 15 15 13 12 10 7 7 8 10 9 8 6 6 7 8 7 4 3 4 6 6 6 6 6 7 7
21 24 26 25 21 18 19 19 19 20 23 26 26 27 28 27 29 26 23 21 21 20 19 19 15 14 14 13 13 13 12 11 8 6 5 6 7 8 8 7 6 6 5 4 4 4 5 6 8 9 10 12 13 15
18 16 16 18 18 17 16 16 17 18 18 18 17 18 18 20 22 19 13 15 19 21 17 15 14 12 11 12 11 11 11 10 8 6 5 5 6 6 6 7 7 7 7 7 7 8 8 10 11 12 13 14 16 17
Wind_Direction
326 333 340 346 351 344 347 357 360 3 3 3 2 359 357 359 345 338 315 298 244 245 258 261 242 255 281 273 289 270 293 274 268 241 230 234 234 234 218 217 204 212 209 210 220 238 265 258 251 249 286 267 284 287
324 328 334 341 347 352 353 353 2 5 12 10 5 9 10 7 6 2 341 292 210 233 302 273 261 269 265 267 261 258 278 296 294 220 215 221 199 183 208 225 217 208 205 233 219 258 246 259 269 283 285 287 286 282
327 325 328 333 336 339 346 355 353 3 10 10 13 12 15 14 6 8 17 44 156 265 275 285 258 237 265 276 252 258 275 313 356 351 3 128 168 191 192 211 199 199 222 243 251 259 273 266 277 282 286 287 283 282
322 324 326 330 335 339 342 344 348 348 348 359 5 9 9 10 12 7 6 17 32 328 316 300 275 249 260 274 256 279 272 265 291 320 326 326 276 248 237 235 230 232 252 262 265 272 266 259 276 282 281 278 279 280
322 325 327 330 333 335 338 339 338 337 340 340 342 353 357 359 4 4 357 354 340 348 340 23 16 236 283 223 208 247 254 254 273 282 279 281 279 263 264 261 255 252 263 273 280 282 284 290 292 291 291 290 290 289
313 318 321 322 324 326 328 330 333 334 329 328 333 332 331 336 344 355 358 5 313 329 336 344 345 338 260 220 210 228 245 247 267 276 286 281 263 260 262 259 278 285 285 280 282 288 292 297 297 298 296 296 297 296
303 310 314 316 317 318 317 316 315 318 324 327 322 321 323 321 311 330 339 334 329 321 331 6 16 27 85 269 213 199 208 244 274 291 292 292 286 273 269 268 279 288 291 289 291 294 297 302 302 304 298 299 306 314
296 304 310 314 317 320 320 317 311 304 302 310 319 321 323 309 303 310 306 299 297 299 304 295 22 36 17 329 275 272 278 277 279 279 282 286 283 276 270 282 292 294 294 291 295 300 304 309 309 310 307 310 313 315
293 301 310 317 323 325 326 326 321 310 302 294 297 305 314 313 298 304 297 300 290 268 285 294 331 350 342 1 271 259 278 284 277 276 283 282 272 257 274 288 286 281 289 293 302 310 312 321 326 314 317 322 318 307
291 302 313 322 326 327 331 333 330 318 312 306 294 294 301 296 309 309 280 283 321 25 329 311 299 308 311 340 333 311 292 280 279 291 294 278 283 297 279 268 258 275 297 301 314 321 322 340 339 320 314 311 316 320
277 291 311 324 330 336 339 340 338 330 323 314 308 295 292 301 301 259 221 238 313 39 55 65 51 41 342 320 317 291 284 280 274 281 283 268 290 319 281 224 226 255 289 315 327 328 332 337 338 346 336 310 305 312
264 270 288 315 332 347 352 349 346 338 330 320 309 300 292 277 225 219 209 209 212 301 351 352 347 337 327 319 294 278 273 257 258 276 271 264 314 324 268 217 220 265 306 318 331 338 340 337 339 344 347 341 319 297
262 262 268 284 309 326 344 355 352 348 337 327 315 299 276 249 225 212 198 195 190 274 325 341 329 303 300 283 259 258 258 254 277 248 260 296 333 325 251 203 234 288 308 322 333 341 344 341 338 342 349 348 341 310
271 263 263 265 276 294 310 329 344 346 342 324 309 268 259 234 230 211 197 213 252 277 296 304 318 307 270 271 254 254 254 262 256 251 283 341 332 321 267 253 261 285 305 312 325 335 341 343 342 339 347 359 359 342
288 278 266 263 264 271 285 305 322 331 332 314 285 255 249 253 247 239 243 259 277 289 299 308 307 281 263 240 239 241 235 238 234 281 337 334 326 320 275 258 265 282 295 303 319 328 334 340 344 343 344 357 1 359
286 290 283 268 261 263 271 283 300 309 317 291 252 293 291 276 262 256 263 276 286 293 302 305 281 259 232 225 221 229 229 227 222 304 328 331 325 300 285 269 249 262 285 298 312 318 323 329 338 341 341 344 2 357
288 285 286 285 268 262 266 272 281 288 287 270 305 314 303 297 286 261 260 263 269 277 278 278 251 249 240 229 231 229 241 262 256 287 317 309 309 313 294 285 278 275 284 293 299 304 308 310 318 330 336 335 335 347
292 284 286 284 279 268 265 265 270 272 276 289 293 309 293 309 295 262 250 254 262 269 270 258 250 247 244 247 254 264 273 266 290 302 304 294 292 283 285 279 276 276 281 284 287 290 292 292 295 305 315 321 320 317
296 295 288 283 277 274 274 274 266 270 278 284 291 291 278 296 294 273 260 259 263 265 262 265 261 251 259 269 283 283 285 289 293 290 294 285 279 278 274 279 274 274 276 272 271 273 278 278 279 285 295 301 304 301
291 295 293 285 276 270 271 263 270 270 278 284 287 277 278 288 269 280 273 263 261 260 257 251 259 269 279 287 289 288 288 286 284 285 283 283 281 269 264 271 278 280 265 261 262 271 275 275 274 275 281 286 290 288
288 291 291 284 273 264 260 260 256 275 275 276 287 280 279 289 274 285 280 268 260 263 267 276 279 279 280 282 282 284 281 281 284 287 289 288 283 275 270 268 269 264 257 251 263 268 272 278 276 274 275 278 281 282
285 293 283 280 274 270 272 264 265 270 271 275 277 278 282 284 274 272 275 269 280 292 290 289 281 274 274 275 277 280 284 287 289 291 291 291 289 285 279 276 272 268 268 263 259 267 266 265 268 267 270 273 273 274
279 282 273 266 245 257 272 270 259 265 256 269 275 280 284 284 268 269 273 278 292 292 295 298 295 291 289 289 289 291 294 296 297 297 294 291 290 289 288 283 286 286 278 270 264 255 256 262 267 269 268 267 271 271
269 259 264 258 241 244 262 263 269 269 272 266 266 271 271 272 265 271 277 288 297 281 302 308 307 303 301 299 299 301 301 302 304 305 309 308 305 301 294 289 282 283 287 279 264 263 259 276 277 274 269 262 262 266
241 249 238 242 241 240 255 264 267 270 275 277 272 264 258 262 259 270 285 294 236 291 314 314 314 313 309 307 305 304 304 305 307 310 309 303 303 311 304 298 303 284 282 269 244 252 266 275 282 280 271 263 252 254
230 233 227 233 236 245 251 259 272 276 283 276 263 260 261 262 261 250 271 263 245 316 318 318 317 317 315 314 313 312 310 310 312 313 311 308 308 311 309 296 303 299 271 257 254 248 267 291 302 303 289 275 262 253
229 235 237 238 240 250 254 266 270 273 274 266 269 268 264 244 246 248 262 215 299 313 312 312 313 317 318 318 319 318 315 316 317 314 310 310 311 313 303 289 286 280 272 265 268 280 291 295 296 294 289 274 262 260
240 241 246 255 256 264 268 271 274 276 275 267 258 235 231 221 231 209 227 301 315 312 309 306 308 313 316 316 320 320 321 321 320 316 303 299 306 303 291 276 274 277 278 279 280 277 277 280 284 281 271 263 259 258
245 252 257 260 268 268 270 270 273 276 278 271 262 262 254 247 246 256 260 276 290 294 302 301 305 308 310 314 317 320 322 324 321 316 298 289 309 298 289 284 281 284 286 288 295 287 279 280 275 259 251 252 256 260
255 259 264 270 270 270 279 279 283 284 280 277 270 270 273 272 263 252 252 260 265 273 285 291 295 296 301 308 312 316 319 318 318 321 300 280 301 309 297 290 289 288 288 288 283 293 301 297 269 245 239 244 253 259
260 267 269 272 276 287 286 284 283 281 277 272 268 268 267 266 263 261 252 245 248 262 276 284 283 278 288 298 305 309 309 309 313 322 313 284 273 286 300 302 302 301 289 275 265 274 278 273 267 262 258 259 264 268
264 271 277 278 283 282 282 281 278 271 269 265 264 263 262 259 258 257 239 240 252 266 273 269 259 261 277 289 294 298 299 300 303 310 319 314 294 278 282 290 296 295 292 292 295 300 299 292 288 284 281 278 274 270
264 266 275 279 279 282 286 294 291 288 287 281 270 260 252 248 247 248 242 245 260 267 254 243 249 262 273 282 287 291 292 288 287 287 291 303 308 301 288 279 278 283 290 294 295 294 292 292 292 290 288 285 283 280
Height
2935 2933 2931 2928 2925 2922 2918 2914 2910 2906 2902 2898 2893 2888 2883 2879 2876 2874 2872 2872 2873 2873 2875 2876 2877 2880 2881 2882 2883 2884 2884 2882 2882 2880 2881 2882 2883 2883 2884 2885 2885 2887 2888 2888 2890 2890 2888 2884 2884 2886 2886 2884 2883 2881
2933 2932 2929 2927 2924 2920 2917 2914 2910 2906 2902 2898 2894 2890 2885 2881 2879 2876 2874 2871 2872 2873 2874 2874 2875 2877 2878 2879 2879 2879 2880 2879 2875 2871 2874 2876 2877 2878 2881 2881 2882 2884 2884 2884 2885 2883 2882 2881 2882 2882 2881 2879 2879 2876
2931 2930 2928 2925 2922 2919 2916 2913 2909 2906 2902 2898 2895 2891 2887 2884 2880 2877 2875 2873 2873 2874 2874 2873 2874 2875 2874 2875 2876 2876 2876 2877 2876 2874 2872 2871 2875 2877 2878 2879 2880 2880 2881 2881 2881 2881 2880 2880 2880 2879 2877 2875 2873 2871
2930 2928 2926 2924 2921 2918 2915 2912 2909 2905 2902 2899 2896 2893 2889 2885 2882 2879 2877 2876 2876 2875 2874 2874 2872 2872 2873 2872 2873 2875 2875 2876 2875 2876 2875 2875 2876 2877 2877 2878 2878 2880 2879 2878 2878 2878 2877 2878 2877 2874 2872 2869 2866 2863
2928 2926 2924 2922 2919 2916 2913 2910 2907 2904 2901 2899 2896 2893 2890 2887 2884 2882 2880 2878 2877 2878 2875 2873 2872 2871 2871 2871 2872 2873 2873 2874 2875 2875 2875 2876 2876 2877 2876 2875 2875 2877 2876 2876 2874 2874 2872 2871 2870 2867 2863 2859 2857 2852
2926 2925 2923 2920 2917 2915 2912 2909 2906 2903 2900 2897 2895 2892 2889 2887 2885 2883 2881 2880 2878 2876 2875 2874 2873 2871 2872 2871 2871 2872 2872 2873 2873 2873 2873 2873 2874 2875 2873 2871 2871 2872 2872 2871 2871 2869 2866 2864 2861 2859 2855 2851 2848 2844
2923 2922 2920 2917 2915 2912 2909 2906 2903 2900 2897 2895 2892 2890 2888 2886 2884 2883 2882 2880 2878 2876 2875 2874 2873 2872 2871 2872 2872 2872 2872 2873 2873 2872 2871 2872 2872 2872 2869 2867 2869 2869 2868 2867 2865 2862 2860 2859 2853 2851 2848 2845 2841 2835
2919 2918 2916 2914 2911 2908 2905 2902 2899 2896 2894 2892 2890 2888 2886 2884 2883 2882 2880 2879 2877 2876 2875 2874 2874 2874 2873 2872 2872 2872 2872 2871 2871 2870 2869 2869 2869 2868 2863 2863 2864 2864 2863 2862 2861 2858 2855 2851 2848 2845 2842 2838 2835 2832
2916 2914 2912 2910 2908 2905 2902 2898 2895 2892 2890 2888 2887 2885 2884 2882 2881 2880 2878 2877 2875 2877 2874 2873 2873 2874 2873 2871 2871 2872 2871 2870 2869 2867 2866 2866 2862 2860 2859 2860 2860 2861 2860 2859 2858 2855 2852 2847 2843 2840 2838 2835 2831 2829
2912 2911 2910 2907 2905 2902 2899 2895 2892 2889 2886 2884 2883 2882 2881 2880 2878 2877 2876 2876 2875 2875 2874 2873 2873 2873 2874 2872 2871 2872 2869 2868 2866 2865 2863 2860 2855 2854 2854 2856 2857 2858 2858 2857 2855 2852 2849 2845 2841 2838 2835 2832 2829 2827
2908 2908 2907 2905 2902 2899 2896 2893 2890 2886 2884 2882 2880 2879 2879 2877 2876 2875 2875 2876 2875 2875 2874 2873 2872 2872 2872 2872 2871 2871 2869 2867 2865 2865 2863 2858 2852 2852 2851 2852 2854 2856 2857 2855 2853 2849 2846 2842 2839 2836 2833 2829 2826 2825
2904 2904 2903 2902 2900 2898 2895 2891 2888 2884 2881 2880 2878 2877 2876 2875 2875 2876 2875 2875 2875 2875 2875 2874 2873 2872 2871 2870 2870 2869 2868 2867 2864 2863 2861 2855 2852 2851 2850 2852 2854 2855 2854 2853 2850 2847 2844 2840 2837 2834 2830 2826 2823 2823
2899 2899 2899 2898 2897 2895 2893 2890 2886 2882 2880 2877 2875 2874 2875 2875 2874 2873 2873 2874 2874 2874 2874 2873 2872 2871 2869 2869 2868 2868 2866 2864 2863 2861 2858 2854 2853 2852 2851 2852 2853 2853 2852 2850 2848 2845 2842 2839 2835 2833 2830 2825 2821 2820
2894 2894 2894 2894 2893 2892 2890 2888 2885 2882 2878 2876 2874 2874 2874 2872 2872 2871 2872 2872 2873 2872 2872 2871 2870 2870 2868 2868 2866 2865 2864 2863 2861 2859 2856 2854 2852 2851 2851 2851 2851 2851 2850 2848 2846 2844 2841 2838 2834 2832 2829 2826 2822 2821
2889 2888 2888 2888 2888 2887 2886 2885 2883 2880 2878 2876 2874 2872 2870 2870 2870 2870 2870 2870 2870 2870 2869 2868 2867 2867 2866 2865 2864 2863 2861 2859 2857 2856 2855 2853 2851 2850 2849 2848 2848 2848 2847 2846 2844 2842 2839 2837 2834 2831 2829 2826 2824 2822
2884 2884 2882 2882 2882 2881 2881 2881 2880 2878 2875 2873 2871 2869 2867 2866 2867 2866 2866 2867 2867 2866 2866 2866 2864 2863 2861 2861 2860 2858 2857 2854 2853 2853 2852 2850 2848 2846 2845 2844 2844 2844 2844 2843 2841 2839 2838 2836 2833 2831 2828 2826 2824 2823
2879 2878 2877 2877 2876 2875 2875 2876 2875 2874 2872 2869 2867 2865 2863 2862 2862 2862 2862 2862 2863 2863 2863 2863 2862 2860 2858 2856 2855 2853 2851 2851 2850 2850 2849 2848 2846 2844 2843 2841 2841 2841 2840 2839 2838 2837 2835 2834 2832 2830 2828 2826 2824 2823
2873 2872 2872 2871 2871 2870 2870 2870 2870 2867 2864 2864 2862 2861 2859 2858 2858 2857 2858 2858 2859 2858 2859 2859 2858 2856 2854 2851 2850 2849 2849 2848 2847 2845 2845 2843 2842 2840 2839 2838 2837 2837 2836 2835 2833 2832 2831 2830 2829 2828 2826 2825 2823 2822
2868 2867 2866 2866 2866 2865 2864 2863 2863 2860 2857 2857 2857 2856 2854 2854 2853 2853 2853 2853 2853 2853 2853 2853 2852 2848 2847 2847 2847 2846 2844 2842 2841 2841 2840 2838 2836 2835 2833 2831 2831 2831 2831 2829 2828 2827 2827 2826 2825 2824 2823 2822 2822 2820
2864 2862 2861 2860 2860 2860 2860 2858 2855 2853 2851 2851 2850 2850 2849 2849 2849 2848 2848 2847 2847 2847 2846 2844 2842 2843 2843 2842 2841 2839 2838 2836 2834 2833 2833 2832 2830 2829 2827 2825 2824 2823 2822 2822 2822 2821 2821 2820 2820 2819 2819 2818 2818 2817
2859 2857 2856 2855 2854 2855 2855 2852 2849 2848 2846 2844 2844 2844 2844 2844 2843 2843 2842 2841 2840 2838 2836 2836 2837 2837 2836 2834 2833 2832 2830 2828 2826 2824 2822 2821 2821 2819 2818 2816 2815 2814 2814 2814 2814 2814 2814 2814 2814 2813 2813 2813 2813 2813
2853 2852 2850 2849 2849 2848 2845 2845 2844 2840 2841 2839 2838 2838 2837 2836 2837 2837 2836 2834 2832 2831 2830 2830 2829 2828 2827 2826 2825 2823 2822 2820 2818 2815 2813 2810 2808 2807 2806 2805 2804 2804 2804 2803 2804 2805 2806 2807 2807 2806 2807 2807 2807 2807
2846 2845 2844 2844 2845 2842 2840 2837 2836 2835 2835 2832 2831 2831 2831 2830 2830 2831 2829 2827 2827 2826 2824 2824 2823 2822 2821 2819 2818 2817 2815 2813 2810 2807 2805 2803 2801 2799 2798 2797 2795 2794 2794 2795 2796 2797 2798 2798 2799 2799 2799 2800 2801 2801
2838 2838 2838 2837 2835 2834 2832 2831 2830 2829 2828 2827 2827 2826 2825 2825 2825 2824 2822 2822 2822 2821 2820 2819 2818 2816 2816 2814 2813 2811 2808 2806 2802 2800 2797 2796 2794 2793 2791 2790 2789 2789 2789 2789 2790 2791 2792 2792 2793 2793 2793 2794 2795 2795
2833 2832 2831 2827 2828 2827 2826 2824 2824 2824 2822 2822 2822 2821 2820 2820 2819 2818 2816 2816 2815 2816 2815 2814 2813 2812 2810 2809 2807 2805 2802 2799 2796 2795 2793 2790 2789 2788 2786 2785 2784 2783 2784 2785 2785 2786 2787 2788 2788 2788 2788 2788 2789 2790
2822 2821 2822 2818 2819 2820 2820 2819 2819 2818 2818 2817 2817 2816 2815 2815 2813 2811 2810 2811 2811 2811 2810 2809 2808 2807 2806 2804 2802 2799 2797 2794 2791 2789 2788 2786 2785 2784 2783 2782 2782 2782 2782 2783 2783 2784 2784 2784 2784 2784 2783 2784 2784 2785
2812 2812 2810 2811 2812 2814 2814 2814 2814 2813 2813 2812 2811 2811 2812 2810 2806 2806 2806 2807 2808 2807 2806 2805 2804 2803 2801 2799 2797 2794 2792 2789 2787 2785 2784 2783 2782 2781 2781 2780 2780 2780 2780 2780 2780 2781 2781 2780 2780 2779 2779 2779 2780 2780
2801 2800 2803 2806 2806 2807 2808 2808 2808 2806 2805 2804 2805 2805 2804 2802 2802 2802 2803 2803 2802 2802 2801 2800 2799 2798 2796 2794 2792 2789 2787 2785 2783 2781 2780 2780 2779 2778 2778 2778 2777 2777 2777 2777 2776 2776 2776 2775 2775 2775 2775 2776 2776 2777
2791 2794 2797 2797 2799 2799 2799 2798 2798 2798 2797 2797 2797 2796 2796 2797 2798 2797 2797 2796 2797 2797 2796 2795 2794 2792 2791 2789 2787 2785 2783 2781 2780 2778 2777 2777 2777 2777 2776 2775 2775 2774 2774 2774 2773 2773 2772 2772 2772 2772 2773 2773 2773 2773
2786 2788 2788 2789 2790 2788 2790 2790 2789 2789 2788 2788 2788 2788 2787 2788 2789 2788 2789 2789 2791 2791 2790 2789 2788 2787 2785 2784 2782 2781 2779 2778 2776 2775 2775 2775 2775 2774 2773 2773 2772 2772 2771 2771 2771 2771 2770 2770 2770 2770 2771 2771 2771 2771
2780 2781 2781 2781 2780 2782 2782 2780 2779 2778 2777 2777 2778 2777 2777 2778 2778 2778 2779 2781 2783 2784 2783 2783 2782 2781 2780 2779 2778 2777 2776 2775 2773 2772 2771 2772 2772 2772 2771 2771 2770 2770 2769 2769 2769 2769 2769 2769 2770 2770 2770 2770 2769 2769
2775 2774 2774 2773 2773 2774 2772 2771 2769 2768 2768 2766 2766 2767 2767 2767 2766 2768 2771 2774 2775 2776 2776 2775 2775 2775 2775 2775 2774 2773 2773 2771 2770 2770 2769 2769 2769 2769 2769 2769 2769 2768 2768 2768 2768 2767 2767 2767 2767 2767 2767 2766 2766 2766
2768 2768 2768 2767 2766 2766 2766 2765 2762 2760 2759 2758 2758 2758 2758 2759 2759 2762 2765 2767 2768 2767 2768 2769 2769 2770 2770 2770 2770 2769 2769 2768 2768 2767 2767 2767 2767 2767 2767 2767 2766 2766 2766 2766 2766 2765 2765 2764 2764 2763 2762 2762 2761 2761